Volver al catálogo

SL-8 R/B

ActivoPO
NORAD 20046·ROCKET BODY·🇷🇺 Russia

Lanzado Jun 7, 1989 desde Plesetsk Cosmodrome

Loading…

Próximos Pases (próximas 24 horas)

TLE

ActualizadoSource: Space-Track

Época: Sep 14, 2026, 22:00 UTC

1 20046U 89042B   26257.91730255  .00000113  00000-0  96232-4 0  9990
2 20046  82.9360 305.7204 0040893 318.2827  41.5215 13.78653055874200

Sigue SL-8 R/B en tiempo real con AllMySat

Download on the App Store